Location: Borojevi?i
(45.0486°N, 16.2297°E)
Time: 17:53:36
(UTC+00:00)

ATLAS 5 CENTAUR R/B - Pass Details

Date: 08 August 2020
Orbit: 533 x 1125 km, 63.4° (Epoch: 19 September)

Event Time Altitude Azimuth Distance (km) Brightness Sun altitude
Rises 20:46:30 0° 308° (NW) 3,417 6.6 -21.9°
Reaches altitude 10° 20:49:32 10° 291° (WNW) 2,586 5.5 -22.3°
Maximum altitude 20:53:40 19° 248° (WSW) 2,122 4.4 -22.7°
Enters shadow 20:57:16 13° 212° (SSW) 2,618 4.5 -23.0°
